Butler, GA

3:31 PM EST on December 05, 2019 (GMT -0500)
Butler

Weather History for K6A1 - October, 2019

Change the Weather History Date:

Wednesday, October 23, 2019

  Actual Average (WUND) Record (WUND)
Temperature  
Mean Temperature 60 °F -  
Max Temperature 71 °F - - (-1)
Min Temperature 48 °F - - (-1)
Degree Days  
Heating Degree Days 6    
Growing Degree Days 10 (Base 50)    
Moisture  
Dew Point 37 °F    
Average Humidity 48    
Maximum Humidity 71    
Minimum Humidity 25    
Precipitation  
Precipitation 0.00 in - - ()
Sea Level Pressure  
Sea Level Pressure 30.16 in    
Wind  
Wind Speed 5 mph ()    
Max Wind Speed 14 mph    
Max Gust Speed 17 mph    
Visibility 10.0 miles    
Events      
Averages and records for this station are not official NWS values.
T = Trace of Precipitation, MM = Missing Value Source: Averaged Metar Reports

Daily Weather History Graph

Daily Weather History Graph

Search for Another Location

Airport or City:

Astronomy

Oct. 23, 2019 Rise Set
Actual Time 7:46 AM EDT 6:55 PM EDT
Civil Twilight 7:21 AM EDT 7:20 PM EDT
Nautical Twilight 6:53 AM EDT 7:49 PM EDT
Astronomical Twilight 6:24 AM EDT 8:17 PM EDT
Moon 2:28 AM EDT (10/23) 4:23 PM EDT (10/23)
Length of Visible Light 11h 58m
Length of Day
11h 08m
Waning Crescent, 27% of the Moon is Illuminated
Oct 23
Waning Crescent
Oct 27
New
Nov 4
First Quarter
Nov 12
Full
Nov 19
Last Quarter

Hourly Weather History & Observations

Time (EDT) Temp. Dew Point Humidity Pressure Visibility Wind Dir Wind Speed Gust Speed Precip Events Conditions
12:15 AM 56.8 °F 35.2 °F 44% 30.10 in 10.0 mi WNW 5.8 mph - N/A   Unknown
12:35 AM 57.2 °F 34.7 °F 43% 30.10 in 10.0 mi NW 8.1 mph - N/A   Unknown
12:55 AM 56.5 °F 35.6 °F 46% 30.11 in 10.0 mi NW 4.6 mph - N/A   Unknown
1:15 AM 55.8 °F 36.1 °F 48% 30.11 in 10.0 mi NW 5.8 mph - N/A   Unknown
1:35 AM 55.0 °F 36.9 °F 50% 30.11 in 10.0 mi WNW 5.8 mph - N/A   Unknown
1:55 AM 55.0 °F 37.4 °F 51% 30.11 in 10.0 mi NW 5.8 mph - N/A   Unknown
2:15 AM 54.5 °F 37.6 °F 53% 30.11 in 10.0 mi NW 5.8 mph - N/A   Unknown
2:35 AM 54.0 °F 38.1 °F 55% 30.11 in 10.0 mi NW 4.6 mph - N/A   Unknown
2:55 AM 53.1 °F 38.3 °F 57% 30.11 in 10.0 mi NW 5.8 mph - N/A   Unknown
3:15 AM 52.7 °F 38.5 °F 58% 30.11 in 10.0 mi NW 4.6 mph - N/A   Unknown
3:35 AM 52.2 °F 38.7 °F 60% 30.11 in 10.0 mi NW 4.6 mph - N/A   Unknown
3:55 AM 52.0 °F 39.0 °F 61% 30.12 in 10.0 mi NNW 6.9 mph - N/A   Unknown
4:15 AM 51.8 °F 39.2 °F 62% 30.12 in 10.0 mi NNW 5.8 mph - N/A   Unknown
4:35 AM 51.4 °F 39.2 °F 63% 30.12 in 10.0 mi NNW 6.9 mph - N/A   Unknown
4:55 AM 51.4 °F 39.2 °F 63% 30.12 in 10.0 mi North 8.1 mph - N/A   Unknown
5:15 AM 50.9 °F 39.4 °F 65% 30.13 in 10.0 mi North 8.1 mph - N/A   Unknown
5:35 AM 50.9 °F 39.4 °F 65% 30.13 in 10.0 mi North 6.9 mph - N/A   Unknown
5:55 AM 50.0 °F 39.4 °F 67% 30.14 in 10.0 mi North 3.5 mph - N/A   Unknown
6:15 AM 49.8 °F 39.4 °F 67% 30.14 in 10.0 mi North 5.8 mph - N/A   Unknown
6:35 AM 49.1 °F 39.2 °F 69% 30.14 in 10.0 mi North 4.6 mph - N/A   Unknown
6:55 AM 48.4 °F 39.4 °F 71% 30.14 in 10.0 mi North 4.6 mph - N/A   Unknown
7:15 AM 48.4 °F 39.4 °F 71% 30.15 in 10.0 mi NNW 5.8 mph - N/A   Unknown
7:35 AM 48.6 °F 38.8 °F 69% 30.15 in 10.0 mi NNW 5.8 mph - N/A   Unknown
7:55 AM 48.4 °F 38.7 °F 69% 30.16 in 10.0 mi NNW 4.6 mph - N/A   Unknown
8:15 AM 49.1 °F 39.0 °F 68% 30.16 in 10.0 mi NNW 4.6 mph - N/A   Unknown
8:35 AM 50.2 °F 39.2 °F 66% 30.17 in 10.0 mi NNW 4.6 mph - N/A   Unknown
8:55 AM 51.4 °F 38.8 °F 62% 30.18 in 10.0 mi North 3.5 mph - N/A   Unknown
9:15 AM 52.7 °F 39.4 °F 61% 30.19 in 10.0 mi North 4.6 mph - N/A   Unknown
9:35 AM 54.5 °F 39.4 °F 57% 30.20 in 10.0 mi NNE 4.6 mph - N/A   Unknown
9:55 AM 56.3 °F 38.8 °F 52% 30.21 in 10.0 mi NNE 8.1 mph - N/A   Unknown
10:15 AM 57.7 °F 38.1 °F 48% 30.21 in 10.0 mi NE 6.9 mph - N/A   Unknown
10:35 AM 59.4 °F 36.9 °F 43% 30.21 in 10.0 mi North 9.2 mph - N/A   Unknown
10:55 AM 60.3 °F 35.6 °F 40% 30.21 in 10.0 mi NE 12.7 mph 17.3 mph N/A   Unknown
11:15 AM 61.2 °F 36.9 °F 40% 30.21 in 10.0 mi NE 10.4 mph - N/A   Unknown
11:35 AM 61.9 °F 37.2 °F 40% 30.21 in 10.0 mi NE 11.5 mph - N/A   Unknown
11:55 AM 63.7 °F 36.7 °F 37% 30.20 in 10.0 mi NNE 12.7 mph - N/A   Unknown
12:15 PM 65.3 °F 34.0 °F 31% 30.20 in 10.0 mi North 13.8 mph - N/A   Unknown
12:35 PM 65.7 °F 33.1 °F 30% 30.20 in 10.0 mi North 10.4 mph 16.1 mph N/A   Unknown
12:55 PM 66.4 °F 32.2 °F 28% 30.19 in 10.0 mi North 10.4 mph - N/A   Unknown
1:15 PM 67.3 °F 32.2 °F 27% 30.18 in 10.0 mi NE 9.2 mph - N/A   Unknown
1:35 PM 68.9 °F 32.2 °F 26% 30.18 in 10.0 mi NNE 4.6 mph - N/A   Unknown
1:55 PM 68.7 °F 33.1 °F 27% 30.17 in 10.0 mi NE 8.1 mph - N/A   Unknown
2:15 PM 68.9 °F 32.9 °F 26% 30.17 in 10.0 mi North 8.1 mph - N/A   Unknown
2:35 PM 69.8 °F 33.8 °F 27% 30.15 in 10.0 mi NNE 8.1 mph - N/A   Unknown
2:55 PM 69.8 °F 32.7 °F 25% 30.14 in 10.0 mi NNE 9.2 mph - N/A   Unknown
3:15 PM 70.3 °F 32.5 °F 25% 30.14 in 10.0 mi ENE 8.1 mph - N/A   Unknown
3:35 PM 70.5 °F 32.7 °F 25% 30.14 in 10.0 mi NNW 5.8 mph - N/A   Unknown
3:55 PM 69.8 °F 32.4 °F 25% 30.14 in 10.0 mi North 4.6 mph - N/A   Unknown
4:15 PM 70.9 °F 32.9 °F 25% 30.14 in 10.0 mi East 5.8 mph - N/A   Unknown
4:35 PM 70.5 °F 32.9 °F 25% 30.14 in 10.0 mi Calm Calm - N/A   Unknown
4:55 PM 71.1 °F 33.6 °F 25% 30.14 in 10.0 mi NNE 5.8 mph - N/A   Unknown
5:15 PM 70.7 °F 33.4 °F 25% 30.14 in 10.0 mi Calm Calm - N/A   Unknown
5:35 PM 70.0 °F 33.8 °F 26% 30.14 in 10.0 mi NE 3.5 mph - N/A   Unknown
5:55 PM 69.6 °F 34.0 °F 27% 30.14 in 10.0 mi NNE 4.6 mph - N/A   Unknown
6:15 PM 69.1 °F 35.1 °F 29% 30.14 in 10.0 mi Calm Calm - N/A   Unknown
6:35 PM 67.6 °F 36.1 °F 31% 30.15 in 10.0 mi NNE 3.5 mph - N/A   Unknown
7:15 PM 61.3 °F 37.4 °F 41% 30.15 in 10.0 mi Calm Calm - N/A   Unknown
7:35 PM 58.8 °F 38.5 °F 47% 30.16 in 10.0 mi Calm Calm - N/A   Unknown
7:55 PM 58.1 °F 39.2 °F 49% 30.17 in 10.0 mi Calm Calm - N/A   Unknown
8:15 PM 55.6 °F 40.8 °F 58% 30.17 in 10.0 mi Calm Calm - N/A   Unknown
8:35 PM 56.8 °F 38.3 °F 50% 30.18 in 10.0 mi Calm Calm - N/A   Unknown
8:55 PM 57.4 °F 38.3 °F 49% 30.18 in 10.0 mi Calm Calm - N/A   Unknown
9:15 PM 55.8 °F 38.7 °F 53% 30.18 in 10.0 mi Calm Calm - N/A   Unknown
9:35 PM 56.3 °F 38.5 °F 51% 30.19 in 10.0 mi Calm Calm - N/A   Unknown
9:55 PM 55.0 °F 39.2 °F 55% 30.20 in 10.0 mi Calm Calm - N/A   Unknown
10:15 PM 55.6 °F 38.7 °F 53% 30.20 in 10.0 mi Calm Calm - N/A   Unknown
10:35 PM 54.1 °F 39.4 °F 57% 30.20 in 10.0 mi Calm Calm - N/A   Unknown
10:55 PM 51.4 °F 40.3 °F 66% 30.21 in 10.0 mi Calm Calm - N/A   Unknown
11:15 PM 53.2 °F 39.9 °F 61% 30.21 in 10.0 mi Calm Calm - N/A   Unknown
11:35 PM 54.5 °F 39.6 °F 57% 30.20 in 10.0 mi Calm Calm - N/A   Unknown
11:55 PM 53.2 °F 39.6 °F 60% 30.20 in 10.0 mi Calm Calm - N/A   Unknown